#timestamp,LO_Frequency,Hit,StdDev 
1568689215.2,286047006.0,Y
1568689235.0,286047002.8,P
1568689235.9,286047002.8,P
1568689255.8,286047002.5,P
1568689275.6,286047002.3,Y
1568689295.5,286046998.9,P
1568689315.3,286046999.3,N
1568689335.1,286046999.0,N
1568689355.9,286046998.6,N
1568689375.7,286046998.1,N
1568689395.5,286046998.9,N
1568689415.4,286046999.1,N
1568689435.2,286046996.7,N
1568689455.1,286046999.5,N
1568689456.0,286046999.5,N
1568689475.8,286046996.6,N
1568689495.6,286046996.7,N
1568689515.5,286046996.7,N
1568689535.3,286046997.1,N
1568689555.2,286046997.5,N
1568689575.9,286046997.6,N
1568689595.7,286046997.5,N
1568689615.6,286046996.1,N
1568689635.4,286046995.6,N
1568689655.2,286046995.2,N
1568689675.1,286046995.5,N
1568689676.0,286046995.5,N
1568689695.8,286046997.5,N
1568689715.7,286046995.6,N
1568689735.5,286046994.9,N
1568689755.3,286046995.8,N
1568689775.2,286046995.8,N
1568689795.0,286046995.8,N
1568689795.9,286046995.8,N
1568689815.7,286046996.1,N
1568689835.6,286046993.3,Y
1568689855.4,286046996.5,P
1568689875.3,286046999.3,N
1568689895.1,286046999.4,N
1568689915.8,286046997.1,N
1568689935.7,286046996.5,N
1568689955.5,286046997.0,N
1568689975.4,286046996.8,N
1568689995.2,286046997.4,N
1568690015.0,286046996.0,Y
1568690015.9,286046996.0,P
1568690035.8,286046996.8,P
1568690055.6,286046997.3,P
1568690075.5,286046996.8,Y
1568690095.3,286047000.6,P
1568690115.1,286047000.8,N
1568690135.9,286047001.1,N
1568690155.7,286047000.3,N
1568690175.5,286047000.4,N
1568690195.4,286046999.7,N
1568690215.2,286047002.8,N
1568690235.1,286046999.8,N
1568690236.0,286046999.8,N
1568690255.8,286047002.4,N
1568690275.6,286047002.7,N
1568690295.5,286047002.8,N
1568690315.3,286046999.7,N
1568690335.2,286047001.6,N
1568690355.9,286047000.9,N
1568690375.7,286046998.7,N
1568690395.6,286046997.1,N
1568690415.4,286046997.1,N
1568690435.2,286046998.0,N
1568690455.1,286046996.9,N
1568690456.0,286046996.9,N
1568690475.8,286046997.3,N
1568690495.7,286046998.6,N
1568690515.5,286047000.6,N
1568690535.3,286047000.7,N
1568690555.2,286046998.4,N
1568690575.0,286046996.6,N
1568690575.9,286046996.6,N
1568690595.8,286046997.4,N
1568690615.6,286046999.3,N
1568690635.4,286046997.4,N
1568690655.3,286046995.5,N
1568690675.1,286046995.1,N
1568690695.8,286046994.9,N
1568690715.7,286046997.1,N
1568690735.5,286046996.6,N
1568690755.4,286046997.4,N
1568690775.2,286046998.6,N
1568690795.0,286046999.1,N
1568690795.9,286046999.1,N
1568690815.8,286046997.6,N
1568690835.6,286046996.8,N
1568690855.5,286046997.4,N
1568690875.3,286046995.8,N
1568690895.1,286046997.9,N
1568690915.9,286046997.5,N
1568690935.7,286046995.0,Y
1568690955.6,286046998.6,P
1568690975.4,286046999.4,N
1568690995.2,286046998.5,N
1568691015.1,286047000.6,N
1568691016.0,286047000.6,N
1568691035.8,286047001.1,N
1568691055.6,286046998.1,N
1568691075.5,286046996.6,N
1568691095.3,286046997.3,N
1568691115.2,286046997.3,N
1568691135.9,286046999.5,N
1568691155.7,286046998.1,N
1568691175.6,286046999.0,N
1568691195.4,286046997.5,N
1568691215.3,286046997.0,N
1568691235.1,286046996.5,N
1568691236.0,286046996.5,N
1568691255.8,286046999.4,N
1568691275.7,286046999.4,N
1568691295.5,286046998.1,N
1568691315.3,286046999.7,N
1568691335.2,286046999.3,N
1568691355.0,286046999.4,N
1568691355.9,286046999.4,N
1568691375.8,286046999.6,N
1568691395.6,286047000.8,N
1568691415.4,286046999.6,N
1568691435.3,286046999.6,N
1568691455.1,286046998.2,N
1568691475.9,286046999.8,N
1568691495.7,286047000.4,N
1568691515.5,286047002.2,N
1568691535.4,286047004.3,N
1568691555.2,286047003.9,N
1568691575.0,286047003.6,N
1568691576.0,286047003.6,N
1568691595.8,286047001.4,N
1568691615.6,286047002.5,N
1568691635.5,286047001.5,N
1568691655.3,286047002.4,N
1568691675.1,286047004.2,N
1568691695.9,286047006.0,N
1568691715.7,286047003.0,N
1568691735.6,286047004.4,N
1568691755.4,286047003.9,N
1568691775.2,286047002.2,N
1568691795.1,286047002.5,N
1568691796.0,286047002.5,N
1568691815.8,286047002.3,N
1568691835.6,286047000.7,N
1568691855.5,286047001.9,N
1568691875.3,286047001.9,N
1568691895.2,286047004.4,N
1568691915.9,286047004.2,N
1568691935.7,286047002.0,N
1568691955.6,286046998.2,N
1568691975.4,286046999.7,N
1568691995.3,286047002.7,N
1568692015.1,286047002.5,N
1568692035.8,286047002.7,N
1568692055.7,286047004.2,N
1568692075.5,286047004.7,Y
1568692095.4,286047004.1,P
1568692115.2,286047001.7,N
1568692135.0,286047002.8,N
1568692135.9,286047002.8,Y
1568692155.8,286046997.1,P
1568692175.6,286046997.4,N
1568692195.5,286046999.4,N
1568692215.3,286046998.5,N
1568692235.1,286046997.2,N
1568692255.9,286046997.4,N
1568692275.7,286046995.5,N
1568692295.5,286046997.8,N
1568692315.4,286046997.6,N
1568692335.2,286046999.1,N
1568692355.1,286046997.0,N
1568692356.0,286046997.0,N
1568692375.8,286046996.7,N
1568692395.6,286046997.9,N
1568692415.5,286046997.4,N
1568692435.3,286046997.9,N
1568692455.2,286046996.8,N
1568692475.9,286046997.2,N
1568692495.7,286046997.8,N
1568692515.6,286046998.0,N
1568692535.4,286046996.6,N
1568692555.2,286046997.0,N
1568692575.1,286046996.6,N
1568692576.0,286046996.6,N
1568692595.8,286046997.7,N
1568692615.7,286046998.8,N
1568692635.5,286046999.2,N
1568692655.3,286046997.0,N
1568692675.2,286046999.0,N
1568692695.0,286046999.0,N
1568692695.9,286046999.0,N
1568692715.8,286046998.4,N
1568692735.6,286046999.4,N
1568692755.4,286046998.6,N
1568692775.3,286047000.8,N
1568692795.1,286046998.3,N
